COSMOS 2251 DEB, 34962

Orbit data source: Space-Track

COSMOS 2251 DEB, 34962 is space debris in LEO originally from a launch on Wed, 16 Jun 1993 UTC launched from the Plesetsk Missile And Space Complex (PKMTR). The debris from Iridium 33, an American commercial communications satellite, has been tracked extensively since its accidental collision with the defunct Russian satellite Cosmos 2251 in 2009. This event, occurring at high speed in low Earth orbit (LEO), generated thousands of pieces of space debris, significantly increasing the risk of further collisions. The Iridium 33 debris cloud has impacted space traffic management and orbital debris mitigation strategies, making it a subject of ongoing study in space situational awareness.

Loading next visibility...
Identifier
34962, 1993-036AER
Orbit
LEO
Country
Flag of CISCIS
Related business
Manufacturer
Unknown
Mission
Spacecraft
Bus & Motor
Unknown
Mass
Unknown
Launch date (UTC)
1993-06-16 (33 years ago)
Launch vehicle
Unknown
Launch site
Plesetsk Missile And Space Complex (PKMTR)
Object type
Payload
Rocket body
Debris
Shape & HBR
Unknown shape, 0.1 m
Radar Cross Section
Small (<0.1 m²)

Expand to show TLE details & history
Last TLE update: 2 days ago

TLE from 2 days ago
0 COSMOS 2251 DEB
1 34962U 93036AER 26133.35847274  .00000750  00000-0  21314-3 0  9996
2 34962  74.0287 270.0050 0018428 347.5700  12.5002 14.47043643897715
Epoch: 2026-05-13T08:36Z
TLE epoch observation values (Epoch: 2026-05-13T08:36:12.044Z)
Latitude
0.00002°
Longitude
-90.16482°
Altitude
725.146 km
Speed
7.5 km/s
True Right ascension
18h 00m 01s
True Declination
0° 00' 00"
Sunlit
Object was in full shadow at epoch
Visualization orbit readout
Latitude
Unknown
Longitude
Unknown
Altitude
Unknown
Speed
Unknown
Apparent Right ascension
Unknown
Apparent Declination
Unknown
Sunlit
N/A
Visualization observer readout
Local Sidereal Time
19:49:21
Azimuth
Unknown
Elevation
Unknown
Doppler factor
Unknown
Orbital elements
Apogee altitude
746.037 km
Perigee altitude
719.829 km
Semi-major axis
7,111.07 km
Eccentricity
0.00184
Inclination
74.0287°
RAAN
270.005°
Arg. of periapsis
347.57°
True anomaly
12.54601°
Mean anomaly
12.5002°
Eccentric anomaly
12.52309°
Mean motion
3.61943 °/min
Orbital period
99.46 mins
BSTAR
0.00021314
Loading maneuver chart data...
Computing Atmospheric mass density...

Documentation

Showing up to 5 results
|